DW1458 Weather Reports


Display with metric or nautical units.
time (UTC)temp
F
wind
direction
speed
MPH
gust
MPH
rain 1hr
in
rain 24hr
in
rain mn
in
humidity
%
barometer
mb
20260507031513 75 142 0.0 10.0 0.00 0.00 0.00 92 1013.6
20260507030012 75 160 1.0 6.0 0.00 0.00 0.00 92 1013.4
20260507024517 75 160 2.0 8.0 0.00 0.00 0.00 92 1013.2
20260507023005 75 69 2.0 6.0 0.00 0.00 0.00 92 1013.6
20260507021513 75 85 1.0 6.0 0.00 0.00 0.00 92 1013.6
20260507020026 75 1 2.0 6.0 0.00 0.00 0.00 91 1013.2
20260507014517 75 191 1.0 5.0 0.00 0.00 0.00 91 1013.0
20260507013033 75 75 1.0 4.0 0.00 0.00 0.00 91 1013.2
20260507010015 75 68 1.0 4.0 0.00 0.00 0.00 90 1013.4
20260507004515 75 174 1.0 4.0 0.00 0.00 0.00 90 1012.9
20260507003022 76 196 0.0 6.0 0.00 0.00 0.00 90 1013.7
20260507001516 76 55 0.0 6.0 0.00 0.00 0.00 89 1013.5
20260507000008 76 156 3.0 5.0 0.00 0.00 0.00 89 1012.9
20260506234504 76 124 1.0 11.0 0.00 0.00 0.00 89 1013.2
20260506233004 76 226 3.0 11.0 0.00 0.00 0.00 88 1013.1
20260506231507 77 148 2.0 6.0 0.00 0.00 0.00 88 1013.0
20260506230010 76 193 2.0 8.0 0.00 0.00 0.00 88 1013.3
20260506224514 76 136 2.0 7.0 0.00 0.00 0.00 88 1013.8
20260506220020 77 102 2.0 7.0 0.00 0.00 0.00 87 1013.8
20260506213013 77 150 4.0 7.0 0.00 0.00 0.00 86 1013.9
20260506211506 78 124 3.0 7.0 0.00 0.00 0.00 86 1014.0
20260506210012 78 105 1.0 5.0 0.00 0.00 0.00 85 1014.2
20260506201516 80 77 3.0 6.0 0.00 0.00 0.00 83 1014.5
20260506194509 80 94 2.0 5.0 0.00 0.00 0.00 83 1014.7
20260506193016 80 139 2.0 7.0 0.00 0.00 0.00 84 1014.8
20260506191521 80 237 2.0 5.0 0.00 0.00 0.00 84 1015.0
20260506190015 79 98 3.0 7.0 0.00 0.00 0.00 87 1015.1
20260506183013 77 147 1.0 4.0 0.00 0.00 0.00 90 1015.7
20260506180022 78 98 2.0 6.0 0.00 0.00 0.00 87 1016.0
20260506173015 78 101 1.0 5.0 0.00 0.00 0.00 86 1016.0
20260506170020 78 30 1.0 7.0 0.00 0.00 0.00 87 1015.9
20260506163010 77 90 2.0 6.0 0.00 0.00 0.00 87 1016.2
20260506160020 77 153 1.0 2.0 0.00 0.00 0.00 87 1016.1
20260506141524 75 93 1.0 3.0 0.00 0.00 0.00 90 1015.5
20260506134520 74 121 1.0 4.0 0.00 0.00 0.00 91 1015.3
20260506133024 73 110 0.0 4.0 0.00 0.00 0.00 92 1015.2
20260506131533 73 124 0.0 2.0 0.00 0.00 0.00 93 1015.0
20260506130026 72 116 0.0 2.0 0.00 0.00 0.00 93 1015.0
20260506124517 72 83 0.0 2.0 0.00 0.00 0.00 94 1014.8
20260506123024 72 115 0.0 2.0 0.00 0.00 0.00 94 1014.5
20260506121524 71 115 0.0 3.0 0.00 0.00 0.00 94 1014.4
20260506113020 68 4 0.0 0.0 0.00 0.00 0.00 94 1013.9
20260506103027 67 124 0.0 0.0 0.00 0.00 0.00 93 1013.0
20260506101523 66 124 0.0 0.0 0.00 0.00 0.00 93 1012.5
20260506100010 66 124 0.0 0.0 0.00 0.00 0.00 93 1012.6
20260506094527 66 124 0.0 0.0 0.00 0.00 0.00 93 1012.6
20260506090007 66 124 0.0 0.0 0.00 0.00 0.00 93 1012.7
20260506084510 66 124 0.0 0.0 0.00 0.00 0.00 92 1012.9
20260506081518 67 124 0.0 0.0 0.00 0.00 0.00 92 1013.1
20260506073013 67 152 0.0 0.0 0.00 0.00 0.00 92 1013.4
20260506071519 67 120 0.0 0.0 0.00 0.00 0.00 92 1013.3
20260506043013 66 114 0.0 0.0 0.00 0.00 0.00 91 1014.4
20260506041512 67 114 0.0 0.0 0.00 0.00 0.00 91 1014.6
20260506040018 67 114 0.0 0.0 0.00 0.00 0.00 91 1014.8
20260506034521 67 114 0.0 0.0 0.00 0.00 0.00 91 1014.7